Weather History for KEWB - February, 2013

Change the Weather History Date:

Friday, February 8, 2013

  Actual Average Record
Temperature  
Mean Temperature 28 °F -  
Max Temperature 33 °F 35 °F 55 °F (2009)
Min Temperature 24 °F 23 °F 3 °F (1963)
Degree Days  
Heating Degree Days 36    
Moisture  
Dew Point 28 °F    
Average Humidity 87    
Maximum Humidity 100    
Minimum Humidity 69    
Precipitation  
Precipitation 0.42 in - - ()
Sea Level Pressure  
Sea Level Pressure 29.90 in    
Wind  
Wind Speed 12 mph (NE)    
Max Wind Speed 32 mph    
Max Gust Speed 52 mph    
Visibility 3 miles    
Events Fog , Snow    
Averages and records for this station are not official NWS values.
T = Trace of Precipitation, MM = Missing Value Source: NWS Daily Summary

Daily Weather History Graph

Daily Weather History Graph

Search for Another Location

Airport or City:

Trip Planner

Search our weather history database for the weather conditions in past years. The results will help you decide how hot, cold, wet, or windy it might be!

Date:

Astronomy

Feb. 08, 2013 Rise Set
Actual Time 6:47 AM EST 5:08 PM EST
Civil Twilight 6:19 AM EST 5:37 PM EST
Nautical Twilight 5:46 AM EST 6:10 PM EST
Astronomical Twilight 5:13 AM EST 6:42 PM EST
Moon 5:14 AM EST (2/8) 3:38 PM EST (2/8)
Length of Visible Light 11h 18m
Length of Day
10h 20m
Waning Crescent, 3% of the Moon is Illuminated
Feb 8
Waning Crescent
Feb 10
New
Feb 17
First Quarter
Feb 25
Full
Mar 4
Last Quarter

Hourly Weather History & Observations

Time (EST) Temp. Windchill Dew Point Humidity Pressure Visibility Wind Dir Wind Speed Gust Speed Precip Events Conditions
12:35 AM 24.8 °F 19.1 °F 17.6 °F 74% 30.45 in 10.0 mi North 4.6 mph - N/A   Mostly Cloudy
12:53 AM 26.1 °F 19.4 °F 17.1 °F 69% 30.44 in 10.0 mi NNE 5.8 mph - N/A   Overcast
1:53 AM 27.0 °F 19.5 °F 19.0 °F 72% 30.41 in 10.0 mi ENE 6.9 mph - N/A   Overcast
2:53 AM 28.9 °F 21.1 °F 21.9 °F 75% 30.38 in 10.0 mi ENE 8.1 mph - N/A   Overcast
3:46 AM 30.2 °F 21.9 °F 23.0 °F 75% 30.36 in 10.0 mi ENE 9.2 mph - N/A   Overcast
3:53 AM 30.0 °F 21.7 °F 23.0 °F 75% 30.36 in 10.0 mi East 9.2 mph - N/A   Overcast
4:31 AM 30.2 °F 21.3 °F 23.0 °F 75% 30.34 in 10.0 mi East 10.4 mph - N/A   Overcast
4:53 AM 30.9 °F 22.8 °F 23.0 °F 72% 30.34 in 10.0 mi East 9.2 mph - N/A   Overcast
5:53 AM 30.9 °F 22.8 °F 23.0 °F 72% 30.31 in 10.0 mi ENE 9.2 mph - N/A   Overcast
6:53 AM 32.0 °F 21.6 °F 24.1 °F 73% 30.31 in 10.0 mi East 15.0 mph 19.6 mph N/A   Overcast
7:53 AM 32.0 °F 21.6 °F 25.0 °F 75% 30.27 in 10.0 mi East 15.0 mph - N/A   Overcast
8:53 AM 32.0 °F 24.2 °F 26.1 °F 79% 30.26 in 2.5 mi East 9.2 mph - 0.00 in Snow Light Snow
9:53 AM 32.0 °F 24.2 °F 27.0 °F 82% 30.23 in 1.5 mi East 9.2 mph - 0.00 in Snow Light Snow
10:35 AM 32.0 °F 24.2 °F 28.4 °F 87% 30.19 in 1.0 mi ENE 9.2 mph - 0.00 in Snow Light Snow
10:43 AM 32.0 °F 23.6 °F 28.4 °F 87% 30.18 in 1.0 mi NE 10.4 mph 18.4 mph 0.00 in Snow Light Snow
10:53 AM 32.0 °F 23.6 °F 28.9 °F 88% 30.18 in 1.0 mi ENE 10.4 mph - 0.00 in Snow Light Snow
10:55 AM 32.0 °F 24.2 °F 28.4 °F 87% 30.17 in 0.8 mi ENE 9.2 mph - 0.00 in Snow Light Snow
10:57 AM 32.0 °F 24.2 °F 30.2 °F 93% 30.17 in 1.0 mi ENE 9.2 mph - 0.00 in Snow Light Snow
11:06 AM 32.0 °F 23.6 °F 30.2 °F 93% 30.16 in 1.0 mi ENE 10.4 mph - 0.01 in Snow Light Snow
11:26 AM 32.0 °F 24.2 °F 30.2 °F 93% 30.14 in 1.0 mi ENE 9.2 mph - 0.01 in Snow Light Snow
11:33 AM 32.0 °F 24.2 °F 30.2 °F 93% 30.13 in 0.8 mi NE 9.2 mph - 0.02 in Snow Light Snow
11:53 AM 33.1 °F 25.5 °F 30.9 °F 92% 30.11 in 0.8 mi ENE 9.2 mph - 0.03 in Snow Light Snow
12:09 PM 33.8 °F 24.8 °F 30.2 °F 87% 30.09 in 0.5 mi ENE 12.7 mph 17.3 mph 0.00 in Fog , Snow Snow
12:53 PM 33.1 °F 24.4 °F 30.9 °F 92% 30.06 in 0.5 mi ENE 11.5 mph 18.4 mph 0.03 in Fog , Snow Snow
1:03 PM 33.8 °F 24.8 °F 30.2 °F 87% 30.04 in 0.2 mi ENE 12.7 mph - 0.01 in Fog , Snow Snow
1:30 PM 33.8 °F 23.5 °F 30.2 °F 87% 30.02 in 0.5 mi ENE 16.1 mph - 0.03 in Fog , Snow Snow
1:53 PM 33.1 °F 23.0 °F 30.9 °F 92% 30.00 in 0.2 mi ENE 15.0 mph 21.9 mph 0.04 in Fog , Snow Snow
2:14 PM 33.8 °F 24.3 °F 30.2 °F 87% 29.97 in 0.5 mi ENE 13.8 mph 21.9 mph 0.02 in Fog , Snow Snow
2:53 PM 33.1 °F 21.9 °F 30.9 °F 92% 29.94 in 0.5 mi ENE 18.4 mph 27.6 mph 0.03 in Fog , Snow Snow
3:53 PM 33.1 °F 20.1 °F 32.0 °F 96% 29.85 in 0.5 mi NE 25.3 mph 34.5 mph 0.01 in Fog , Snow Snow
4:20 PM 33.8 °F 22.5 °F 30.2 °F 87% 29.82 in 0.2 mi NE 19.6 mph 34.5 mph 0.01 in Fog , Snow Snow
4:40 PM 33.8 °F 22.2 °F 30.2 °F 87% 29.80 in 0.2 mi NE 20.7 mph 31.1 mph 0.03 in Fog , Snow Snow
4:53 PM 33.1 °F 20.9 °F 30.9 °F 92% 29.80 in 0.2 mi NE 21.9 mph 32.2 mph 0.04 in Fog , Snow Snow
5:00 PM 33.8 °F 21.9 °F 30.2 °F 87% 29.79 in 0.5 mi NE 21.9 mph 38.0 mph 0.01 in Fog , Snow Snow
5:11 PM 33.8 °F 21.3 °F 30.2 °F 87% 29.78 in 0.2 mi NE 24.2 mph 36.8 mph 0.02 in Fog , Snow Heavy Snow
5:39 PM 33.8 °F 22.2 °F 30.2 °F 87% 29.75 in 0.2 mi NE 20.7 mph 36.8 mph 0.05 in Fog , Snow Heavy Snow
5:53 PM 33.1 °F 19.8 °F 30.9 °F 92% 29.74 in 0.2 mi NE 26.5 mph 39.1 mph 0.06 in Fog , Snow Heavy Snow
6:44 PM 32.0 °F 17.2 °F 30.2 °F 93% 29.65 in 0.2 mi NE 32.2 mph 44.9 mph 0.05 in Fog , Snow Heavy Snow
6:53 PM 32.0 °F 18.4 °F 30.9 °F 96% 29.65 in 0.2 mi NE 26.5 mph 43.7 mph 0.07 in Fog , Snow Heavy Snow
7:24 PM 33.8 °F 20.5 °F 30.2 °F 87% 29.62 in 0.2 mi NNE 27.6 mph 51.8 mph 0.04 in Fog , Snow Heavy Snow
7:53 PM 32.0 °F 17.9 °F 32.0 °F 100% 29.57 in 0.2 mi NNE 28.8 mph 43.7 mph 0.06 in Fog , Snow Heavy Snow
8:03 PM 32.0 °F 17.6 °F 32.0 °F 100% 29.54 in 0.2 mi NNE 29.9 mph 51.8 mph 0.01 in Fog , Snow Heavy Snow
8:15 PM 32.0 °F 18.1 °F 32.0 °F 100% 29.52 in 0.2 mi NNE 27.6 mph 50.6 mph 0.02 in Fog , Snow Heavy Snow
8:37 PM 32.0 °F 17.9 °F 32.0 °F 100% 29.49 in 0.2 mi NNE 28.8 mph 47.2 mph 0.04 in Fog , Snow Snow
8:53 PM 32.0 °F 17.9 °F 32.0 °F 100% 29.51 in 0.2 mi NNE 28.8 mph 50.6 mph 0.05 in Fog , Snow Snow
9:16 PM 32.0 °F - 32.0 °F 100% 29.51 in - North - - 0.00 in   Unknown
9:50 PM - - - N/A% 29.48 in - North - - 0.00 in   Unknown
9:53 PM - - - N/A% 29.47 in - North - - 0.00 in   Unknown
10:01 PM - - - N/A% 29.46 in - North - - N/A   Unknown
10:11 PM - - - N/A% 29.43 in - North - - N/A   Unknown
10:33 PM - - - N/A% 29.40 in - North - - N/A   Unknown
10:53 PM - - - N/A% 29.39 in - North - - N/A   Unknown
11:17 PM - - - N/A% 29.36 in - North - - N/A   Unknown
11:40 PM - - - N/A% 29.37 in - North - - N/A   Unknown
11:50 PM - - - N/A% 29.37 in - North - - N/A   Unknown
11:53 PM - - - N/A% 29.37 in - North - - N/A   Unknown